Regional Weather Roundup
Issued by NWS Little Rock, AR

Home | Current Version | Previous Version | Text Only | Print | Product List | Glossary On
Versions: 1 2 3 4 5 6 7 8 9 10 11 12 13 14 15 16 17 18 19 20 21 22 23 24 25 26 27 28 29 30 31 32 33 34 35 36 37 38 39 40 41 42 43 44 45 46 47 48 49 50
000
ASUS44 KLZK 242305
RWRLZK

WEATHER ROUNDUP FOR ARKANSAS
NATIONAL WEATHER SERVICE LITTLE ROCK AR
600 PM CDT SAT SEP 24 2016

NOTE: "FAIR" INDICATES FEW OR NO CLOUDS BELOW 12,000 FEET WITH NO
SIGNIFICANT WEATHER AND/OR OBSTRUCTIONS TO VISIBILITY.

ARZ001-003-010-029-250000-
NORTHWEST ARKANSAS

CITY           SKY/WX    TMP DP  RH WIND       PRES   REMARKS
FAYETTEVILLE   SUNNY     84  68  58 S9        29.99S HX  87
FORT SMITH     SUNNY     90  63  40 SE9       29.93F HX  91
HARRISON       MOSUNNY   84  67  56 SE9       30.02S HX  86
BENTONVILLE    SUNNY     84  64  51 S13       30.00R HX  86
ROGERS         SUNNY     84  68  58 SE12      30.00S HX  87
SILOAM SPGS    MOSUNNY   88  64  45 SE14        N/A  HX  89
HIGHFILL       SUNNY     86  68  54 S15G23    29.98S HX  89
SPRINGDALE     MOSUNNY   86  68  54 SE12      30.00F HX  89
$$

ARZ004-005-016-250000-
NORTH CENTRAL ARKANSAS

CITY           SKY/WX    TMP DP  RH WIND       PRES   REMARKS
BATESVILLE     SUNNY     90  66  45 E3        29.99S HX  92
FLIPPIN        SUNNY     88  66  48 S6        29.98S HX  90
MTN HOME       SUNNY     86  68  54 S6        30.00S HX  89
$$

ARZ040-041-250000-
WEST CENTRAL ARKANSAS

CITY           SKY/WX    TMP DP  RH WIND       PRES   REMARKS
MENA           MOSUNNY   88  70  55 SE6       30.00S HX  92
MOUNT IDA      SUNNY     86  69  56 SE3       29.98S HX  90
$$

ARZ009-017-025-026-028-250000-
NORTHEAST ARKANSAS

CITY           SKY/WX    TMP DP  RH WIND       PRES   REMARKS
CORNING          N/A     90  68  48 E3        30.00F HX  93
JONESBORO      PTSUNNY   92  66  42 NE7       29.98F HX  94
NEWPORT        SUNNY     90  68  48 S7          N/A  HX  94
WALNUT RIDGE   SUNNY     91  66  43 E6        29.98S HX  94
BLYTHEVILLE    CLEAR     91  66  43 E6        30.00S HX  93
$$

ARZ022-023-033-042-044-250000-
CENTRAL ARKANSAS

CITY           SKY/WX    TMP DP  RH WIND       PRES   REMARKS
LITTLE ROCK    MOSUNNY   91  66  43 S7        29.98F HX  93
N LITTLE ROCK    N/A     89  67  47 S5        29.95F HX  92
JACKSONVILLE   SUNNY     91  68  47 S5        29.98S HX  94
SEARCY         MOSUNNY   90  73  57 CALM      29.99F HX  98
HOT SPRINGS    SUNNY     88  69  53 S5        29.99S HX  92
RUSSELLVILLE   SUNNY     88  69  53 VRB3      29.96F HX  92
$$

ARZ036-250000-
EAST ARKANSAS

CITY           SKY/WX    TMP DP  RH WIND       PRES   REMARKS
WEST MEMPHIS   SUNNY     92  61  35 SE5       29.97S HX  92
$$

ARZ050-053-066-070-073-250000-
SOUTHWEST ARKANSAS

CITY           SKY/WX    TMP DP  RH WIND       PRES   REMARKS
ARKADELPHIA    FAIR      88  74  63 CALM      29.97F HX  96
TEXARKANA      SUNNY     90  65  43 S8        29.97S HX  92
EL DORADO      SUNNY     89  70  53 SE5       29.98F HAZE    HX  94
DE QUEEN       SUNNY     89  70  53 SE6       29.93F HX  94
$$

ARZ056-057-069-250000-
SOUTHEAST ARKANSAS

CITY           SKY/WX    TMP DP  RH WIND       PRES   REMARKS
PINE BLUFF     SUNNY     91  67  44 SW6       29.98S HX  94
STUTTGART      MOSUNNY   90  66  45 E3        29.99S HX  92
MONTICELLO     SUNNY     90  68  48 W3        29.98F HX  94

$$





USA.gov is the U.S. government's official web portal to all federal, state and local government web resources and services.